Weather in Frankfurt am Main

Germany     50˚06′21″N   8˚40′46″E
temp.,
°C
wind,
m/s
gust,
m/s
humid.,
%
clouds,
%
prec.,
mm/h
press.,
hPa
HPBL,
m
28 november, sat
sat2801:00+3˚ene22670 0.0 1021103
04:00+2˚ene23660 0.0 1021121
07:00+1˚ene24690 0.0 1021128
10:00+3˚ene24610 0.0 1022189
13:00+6˚ene245227 0.0 1021354
16:00+6˚nne235768 0.0 102092
19:00+4˚ne257259 0.0 1021149
22:00+3˚ne277645 0.0 1023293
29 november, sun
sun2901:00+2˚ne367434 0.0 1023351
04:00+1˚ne36760 0.0 1024364
07:00ne36800 0.0 1025340
10:00+1˚ene36720 0.0 1026484
13:00+4˚ne25590 0.0 1025735
16:00+4˚ene13620 0.0 1025145
19:00+2˚ene22720 0.0 102699
22:00+1˚ene13780 0.0 1027151
30 november, mon
mon3001:00ne13810 0.0 1028139
04:00ne13830 0.0 1027124
07:00−1˚ne12840 0.0 1028108
10:00+1˚ene12750 0.0 1028171
13:00+4˚s11600 0.0 1027438
16:00+3˚sw12650 0.0 1026206
19:00+1˚ssw24720 0.0 1026148
22:00+1˚ssw367087 0.0 1025303
1 december, tue
tue101:00+2˚sw386893 0.0 1023465
04:00+1˚ssw4894100 1.6 1020364
07:00+1˚sw4994100 4.1 1019435
10:00+2˚ssw3893100 2.4 1018297
13:00+3˚ssw2494100 3.1 1017174
16:00+3˚sse0196100 0.3 101755
19:00+3˚ne0195100 0.4 101924
22:00+3˚se1195100 0.0 102030
2 december, wed
wed201:00+3˚nne0094100 0.1 102144
04:00+3˚ese0194100 0.1 102158
07:00+3˚nw0193100 0.1 102265
10:00+4˚sse0190100 0.0 1022129
13:00+5˚sw128090 0.0 1021436
16:00+5˚w117999 0.0 1021362
19:00+5˚ssw117599 0.1 1021102
22:00+4˚s1277100 0.0 1021195